| time (UTC) | temp F | wind direction | speed knots | gust knots | rain 1hr in | rain 24hr in | rain mn in | humidity % | barometer mb |
| 20260507161514 | 47 | 330 | 7.8 | 16.5 | 0.00 | 0.38 | 0.00 | 55 | 1009.8 |
| 20260507160009 | 46 | 267 | 7.0 | 18.2 | 0.00 | 0.46 | 0.00 | 56 | 1009.8 |
| 20260507154508 | 45 | 323 | 8.7 | 15.6 | 0.00 | 0.46 | 0.00 | 58 | 1010.0 |
| 20260507153006 | 44 | 253 | 9.6 | 17.4 | 0.00 | 0.46 | 0.00 | 61 | 1010.1 |
| 20260507151502 | 44 | 267 | 7.8 | 13.9 | 0.00 | 0.46 | 0.00 | 63 | 1010.2 |
| 20260507150002 | 44 | 323 | 7.0 | 16.5 | 0.00 | 0.52 | 0.00 | 65 | 1010.5 |
| 20260507144602 | 43 | 300 | 8.7 | 16.5 | 0.00 | 0.52 | 0.00 | 64 | 1010.4 |
| 20260507143101 | 43 | 231 | 5.2 | 14.8 | 0.00 | 0.52 | 0.00 | 66 | 1010.3 |
| 20260507141602 | 43 | 340 | 5.2 | 18.2 | 0.00 | 0.52 | 0.00 | 70 | 1010.4 |
| 20260507140113 | 43 | 309 | 7.8 | 14.8 | 0.00 | 0.52 | 0.00 | 70 | 1010.1 |
| 20260507134554 | 42 | 243 | 5.2 | 16.5 | 0.00 | 0.56 | 0.00 | 73 | 1010.1 |
| 20260507133051 | 43 | 210 | 6.1 | 11.3 | 0.00 | 0.56 | 0.00 | 76 | 1010.2 |
| 20260507131601 | 42 | 221 | 3.5 | 7.8 | 0.00 | 0.56 | 0.00 | 79 | 1009.9 |
| 20260507130053 | 42 | 296 | 4.3 | 8.7 | 0.00 | 0.56 | 0.00 | 80 | 1010.2 |
| 20260507124552 | 41 | 275 | 1.7 | 6.1 | 0.00 | 0.64 | 0.00 | 88 | 1010.3 |
| 20260507123052 | 40 | 348 | 2.6 | 4.3 | 0.00 | 0.64 | 0.00 | 90 | 1010.3 |
| 20260507121543 | 40 | 341 | 2.6 | 5.2 | 0.00 | 0.64 | 0.00 | 90 | 1010.1 |
| 20260507120043 | 40 | 289 | 1.7 | 4.3 | 0.00 | 0.64 | 0.00 | 91 | 1009.9 |
| 20260507114544 | 40 | 250 | 2.6 | 6.1 | 0.00 | 0.70 | 0.00 | 91 | 1009.8 |
| 20260507113040 | 41 | 241 | 1.7 | 4.3 | 0.00 | 0.70 | 0.00 | 91 | 1009.7 |
| 20260507111543 | 41 | 248 | 1.7 | 2.6 | 0.00 | 0.70 | 0.00 | 90 | 1009.8 |
| 20260507110037 | 41 | 275 | 0.0 | 1.7 | 0.00 | 0.70 | 0.00 | 90 | 1009.7 |
| 20260507104539 | 41 | 277 | 0.9 | 2.6 | 0.00 | 0.73 | 0.00 | 91 | 1009.4 |
| 20260507103035 | 40 | 338 | 1.7 | 4.3 | 0.00 | 0.73 | 0.00 | 91 | 1009.5 |
| 20260507101543 | 40 | 5 | 2.6 | 4.3 | 0.00 | 0.73 | 0.00 | 92 | 1009.6 |
| 20260507100036 | 40 | 341 | 0.9 | 3.5 | 0.00 | 0.73 | 0.00 | 91 | 1009.5 |
| 20260507094534 | 40 | 350 | 0.9 | 2.6 | 0.00 | 0.75 | 0.00 | 91 | 1009.2 |
| 20260507093038 | 40 | 337 | 1.7 | 3.5 | 0.00 | 0.75 | 0.00 | 92 | 1009.4 |
| 20260507091531 | 40 | 343 | 0.9 | 3.5 | 0.00 | 0.75 | 0.00 | 92 | 1009.2 |
| 20260507090033 | 40 | 5 | 1.7 | 4.3 | 0.00 | 0.75 | 0.00 | 92 | 1009.1 |
| 20260507084530 | 40 | 355 | 1.7 | 5.2 | 0.00 | 0.78 | 0.00 | 92 | 1009.3 |
| 20260507083037 | 40 | 342 | 1.7 | 5.2 | 0.00 | 0.78 | 0.00 | 92 | 1009.8 |
| 20260507081529 | 40 | 334 | 1.7 | 4.3 | 0.00 | 0.78 | 0.00 | 92 | 1009.8 |
| 20260507080025 | 40 | 327 | 1.7 | 3.5 | 0.00 | 0.78 | 0.00 | 92 | 1009.8 |
| 20260507074528 | 40 | 339 | 1.7 | 5.2 | 0.00 | 0.80 | 0.00 | 92 | 1009.7 |
| 20260507073022 | 40 | 348 | 1.7 | 3.5 | 0.00 | 0.80 | 0.00 | 92 | 1009.4 |
| 20260507071521 | 40 | 350 | 1.7 | 3.5 | 0.00 | 0.80 | 0.00 | 92 | 1009.4 |
| 20260507070021 | 40 | 355 | 0.9 | 2.6 | 0.00 | 0.80 | 0.00 | 92 | 1009.2 |
| 20260507064519 | 40 | 351 | 0.9 | 5.2 | 0.00 | 0.83 | 0.00 | 92 | 1009.2 |
| 20260507063018 | 39 | 349 | 0.9 | 3.5 | 0.00 | 0.83 | 0.00 | 92 | 1009.4 |
| 20260507061517 | 39 | 333 | 0.9 | 2.6 | 0.00 | 0.83 | 0.00 | 92 | 1009.4 |
| 20260507060018 | 39 | 333 | 0.0 | 1.7 | 0.00 | 0.83 | 0.00 | 92 | 1009.4 |
| 20260507054515 | 39 | 333 | 0.9 | 1.7 | 0.00 | 0.86 | 0.00 | 92 | 1009.3 |
| 20260507053016 | 39 | 333 | 0.0 | 3.5 | 0.00 | 0.86 | 0.00 | 92 | 1009.7 |
| 20260507051510 | 40 | 333 | 0.9 | 1.7 | 0.00 | 0.86 | 0.00 | 92 | 1010.1 |
| 20260507050011 | 40 | 333 | 0.0 | 2.6 | 0.00 | 0.89 | 0.00 | 92 | 1010.0 |
| 20260507044507 | 40 | 333 | 0.0 | 1.7 | 0.00 | 0.89 | 0.00 | 92 | 1010.3 |
| 20260507043006 | 40 | 333 | 1.7 | 3.5 | 0.00 | 0.89 | 0.00 | 92 | 1010.1 |
| 20260507041503 | 40 | 332 | 1.7 | 3.5 | 0.00 | 0.89 | 0.00 | 92 | 1010.3 |
| 20260507040001 | 40 | 332 | 0.9 | 2.6 | 0.00 | 0.97 | 0.89 | 91 | 1010.2 |
| 20260507034502 | 41 | 332 | 0.0 | 2.6 | 0.00 | 0.97 | 0.89 | 91 | 1010.2 |
| 20260507033100 | 41 | 331 | 1.7 | 4.3 | 0.00 | 0.97 | 0.89 | 92 | 1010.4 |
| 20260507031602 | 41 | 331 | 2.6 | 4.3 | 0.00 | 0.97 | 0.89 | 91 | 1010.4 |
| 20260507030100 | 41 | 298 | 3.5 | 7.0 | 0.00 | 0.97 | 0.89 | 92 | 1010.3 |
| 20260507024556 | 41 | 278 | 0.9 | 5.2 | 0.00 | 1.01 | 0.89 | 92 | 1010.2 |
| 20260507023055 | 41 | 342 | 0.0 | 3.5 | 0.00 | 1.01 | 0.89 | 92 | 1009.9 |
| 20260507021554 | 41 | 286 | 0.9 | 3.5 | 0.00 | 1.01 | 0.89 | 92 | 1010.3 |
| 20260507014603 | 41 | 313 | 1.7 | 5.2 | 0.01 | 1.02 | 0.89 | 92 | 1010.5 |
| 20260507013051 | 41 | 276 | 1.7 | 5.2 | 0.04 | 1.02 | 0.89 | 92 | 1010.4 |
| 20260507011601 | 41 | 292 | 0.9 | 7.0 | 0.05 | 1.02 | 0.89 | 92 | 1010.3 |
| 20260507010050 | 41 | 252 | 1.7 | 7.8 | 0.05 | 1.02 | 0.89 | 92 | 1010.1 |
| 20260507004549 | 42 | 267 | 1.7 | 5.2 | 0.03 | 1.00 | 0.87 | 92 | 1009.9 |
| 20260507003048 | 42 | 269 | 1.7 | 4.3 | 0.01 | 0.98 | 0.85 | 92 | 1009.6 |
| 20260507001602 | 42 | 329 | 0.0 | 2.6 | 0.01 | 0.97 | 0.84 | 92 | 1009.3 |
| 20260507000053 | 42 | 330 | 0.9 | 4.3 | 0.01 | 0.97 | 0.84 | 92 | 1009.2 |
| 20260506234547 | 42 | 319 | 1.7 | 3.5 | 0.01 | 0.97 | 0.84 | 92 | 1009.0 |
| 20260506233046 | 42 | 360 | 1.7 | 8.7 | 0.01 | 0.97 | 0.84 | 92 | 1008.7 |
| 20260506231544 | 42 | 360 | 1.7 | 7.0 | 0.00 | 0.96 | 0.83 | 92 | 1008.7 |
| 20260506230048 | 42 | 348 | 4.3 | 8.7 | 0.00 | 0.96 | 0.83 | 92 | 1009.0 |
| 20260506224545 | 43 | 351 | 3.5 | 7.0 | 0.00 | 0.96 | 0.83 | 92 | 1008.8 |
| 20260506223043 | 43 | 342 | 4.3 | 8.7 | 0.00 | 0.96 | 0.83 | 92 | 1008.8 |
| 20260506221543 | 43 | 350 | 3.5 | 7.8 | 0.00 | 0.96 | 0.83 | 92 | 1008.6 |
| 20260506220056 | 43 | 5 | 2.6 | 7.0 | 0.01 | 0.96 | 0.83 | 92 | 1008.6 |
| 20260506214545 | 43 | 338 | 3.5 | 8.7 | 0.02 | 0.96 | 0.83 | 92 | 1008.5 |
| 20260506213040 | 43 | 17 | 2.6 | 5.2 | 0.03 | 0.96 | 0.83 | 92 | 1008.4 |
| 20260506211541 | 43 | 314 | 0.9 | 3.5 | 0.04 | 0.96 | 0.83 | 92 | 1008.4 |
| 20260506210040 | 43 | 318 | 0.9 | 2.6 | 0.04 | 0.95 | 0.82 | 92 | 1008.6 |
| 20260506204540 | 43 | 313 | 3.5 | 7.0 | 0.04 | 0.96 | 0.81 | 92 | 1008.7 |
| 20260506203111 | 43 | 299 | 2.6 | 4.3 | 0.05 | 0.95 | 0.80 | 92 | 1008.5 |
| 20260506201539 | 43 | 317 | 2.6 | 4.3 | 0.04 | 0.94 | 0.79 | 91 | 1008.4 |
| 20260506200046 | 43 | 319 | 0.0 | 3.5 | 0.04 | 0.93 | 0.78 | 91 | 1008.2 |
| 20260506194538 | 43 | 48 | 0.9 | 5.2 | 0.03 | 0.96 | 0.77 | 91 | 1007.9 |
| 20260506193036 | 43 | 340 | 3.5 | 7.0 | 0.02 | 0.94 | 0.75 | 92 | 1008.1 |
| 20260506191536 | 43 | 348 | 1.7 | 5.2 | 0.03 | 0.94 | 0.75 | 91 | 1008.3 |
| 20260506190045 | 43 | 355 | 0.9 | 7.0 | 0.04 | 0.93 | 0.74 | 92 | 1008.3 |
| 20260506184538 | 43 | 313 | 0.9 | 2.6 | 0.06 | 0.93 | 0.74 | 92 | 1008.4 |
| 20260506183032 | 43 | 312 | 0.9 | 4.3 | 0.07 | 0.92 | 0.73 | 92 | 1008.5 |
| 20260506181534 | 42 | 293 | 2.6 | 5.2 | 0.07 | 0.91 | 0.72 | 92 | 1008.7 |
| 20260506180031 | 42 | 290 | 0.9 | 4.3 | 0.08 | 0.89 | 0.70 | 92 | 1008.8 |
| 20260506174530 | 42 | 302 | 0.9 | 4.3 | 0.08 | 0.87 | 0.68 | 92 | 1008.8 |
| 20260506173037 | 42 | 296 | 0.9 | 4.3 | 0.09 | 0.85 | 0.66 | 92 | 1009.0 |
| 20260506171529 | 43 | 296 | 0.9 | 6.1 | 0.10 | 0.84 | 0.65 | 91 | 1008.9 |
| 20260506170028 | 42 | 325 | 0.9 | 5.2 | 0.10 | 0.81 | 0.62 | 92 | 1008.9 |
| 20260506164528 | 42 | 350 | 1.7 | 5.2 | 0.11 | 0.79 | 0.60 | 91 | 1009.1 |
| 20260506163044 | 42 | 337 | 2.6 | 6.1 | 0.11 | 0.76 | 0.56 | 92 | 1009.1 |